This is the latest recevied weather packets stored in our database for station/object F6DEV-13. If no packets are shown the sender has not sent any weather packets the latest 10 day(s).
| Time | Temp. | Humidity | Pressure | Rain* | Wind** | Luminosity | Snow |
|---|---|---|---|---|---|---|---|
| 1777821836 | 17.22° C | 78% | 1009 hPa | 0 mm | - | - | - |
| 1777821784 | 17.22° C | 78% | 1009 hPa | 0 mm | - | - | - |
| 1777821484 | 17.78° C | 77% | 1009 hPa | 0 mm | - | - | - |
| 1777821154 | 17.78° C | 76% | 1009 hPa | 0 mm | - | - | - |
| 1777820855 | 17.78° C | 76% | 1009 hPa | 0 mm | - | - | - |
| 1777820824 | 17.78° C | 76% | 1009 hPa | 0 mm | - | - | - |
| 1777820525 | 18.33° C | 76% | 1009 hPa | 0 mm | - | - | - |
| 1777820494 | 18.33° C | 76% | 1009 hPa | 0 mm | - | - | - |
| 1777820194 | 18.33° C | 73% | 1009 hPa | 0 mm | - | - | - |
| 1777819894 | 18.89° C | 72% | 1010 hPa | 0 mm | - | - | - |
| 1777819564 | 18.89° C | 71% | 1010 hPa | 0 mm | - | - | - |
| 1777819234 | 19.44° C | 73% | 1010 hPa | 0 mm | - | - | - |
| 1777818972 | 19.44° C | 72% | 1010 hPa | 0 mm | - | - | - |
| 1777818934 | 19.44° C | 72% | 1010 hPa | 0 mm | - | - | - |
| 1777818634 | 19.44° C | 70% | 1010 hPa | 0 mm | - | - | - |
| 1777818335 | 20° C | 72% | 1010 hPa | 0 mm | - | - | - |
| 1777818304 | 20° C | 72% | 1010 hPa | 0 mm | - | - | - |
| 1777817974 | 20° C | 73% | 1010 hPa | 0 mm | - | - | - |
| 1777817674 | 19.44° C | 71% | 1010 hPa | 0 mm | - | - | - |
| 1777817374 | 20° C | 75% | 1010 hPa | 0 mm | - | - | - |
| 1777817074 | 20° C | 74% | 1010 hPa | 0 mm | - | - | - |
| 1777816774 | 19.44° C | 75% | 1010 hPa | 0 mm | - | - | - |
| 1777816444 | 19.44° C | 72% | 1010 hPa | 0 mm | - | - | - |
| 1777816144 | 19.44° C | 73% | 1010 hPa | 0 mm | - | - | - |
| 1777815877 | 19.44° C | 71% | 1010 hPa | 0 mm | - | - | - |
* Rain latest hour (hover to see other rain measurements)
** Current wind speed in m/s (hover to see current wind gust speed)